RYR82Y EIDW-LPPR

Flight info

Callsign RYR82Y
Flight time 2h 0m
Altitude 38000
Route PELIG2J PELIG DCT TUVEN/M077F380 DCT LASNO T9 BEGAS/N0445F380 DCT ELTEP T328 ASPOR
Aircraft B738/M-SDE2E3FGHIRWXY/LB1

Departure

Time 2026-05-05 14:13
Airport Dublin Airport (EIDW)

Arrival

Time 2026-05-05 16:13
Airport Francisco de Sá Carneiro Airport (LPPR)
Time Latitude Longitude Altitude Speed Heading
2026-05-05 13:46 53.43002 -6.24879 210 ft 0 kts
2026-05-05 13:46 53.43004 -6.24878 210 ft 0 kts
2026-05-05 14:03 53.42994 -6.24880 217 ft 4 kts
2026-05-05 14:03 53.42968 -6.24877 216 ft 4 kts 342°
2026-05-05 14:03 53.42948 -6.24856 214 ft 4 kts 292°
2026-05-05 14:04 53.42944 -6.24819 210 ft 4 kts 276°
2026-05-05 14:04 53.42941 -6.24775 218 ft 4 kts 277°
2026-05-05 14:04 53.42939 -6.24750 214 ft 1 kts 275°
2026-05-05 14:06 53.42943 -6.24829 210 ft 18 kts 276°
2026-05-05 14:06 53.42952 -6.24988 217 ft 10 kts 275°
2026-05-05 14:07 53.42957 -6.25103 216 ft 10 kts 273°
2026-05-05 14:07 53.42959 -6.25161 210 ft 5 kts 273°
2026-05-05 14:07 53.42961 -6.25206 210 ft 2 kts 277°
2026-05-05 14:07 53.42997 -6.25280 210 ft 11 kts 329°
2026-05-05 14:08 53.43080 -6.25344 214 ft 16 kts 336°
2026-05-05 14:08 53.43174 -6.25388 214 ft 13 kts 17°
2026-05-05 14:08 53.43210 -6.25266 214 ft 12 kts 88°
2026-05-05 14:08 53.43205 -6.25127 210 ft 12 kts 95°
2026-05-05 14:09 53.43196 -6.24990 210 ft 12 kts 96°
2026-05-05 14:09 53.43190 -6.24857 210 ft 11 kts 94°
2026-05-05 14:09 53.43183 -6.24727 212 ft 11 kts 90°
2026-05-05 14:09 53.43194 -6.24603 210 ft 11 kts 92°
2026-05-05 14:10 53.43191 -6.24480 210 ft 10 kts 80°
2026-05-05 14:10 53.43216 -6.24423 210 ft 4 kts 32°
2026-05-05 14:10 53.43251 -6.24411 210 ft 8 kts
2026-05-05 14:10 53.43331 -6.24429 213 ft 13 kts 319°
2026-05-05 14:11 53.43372 -6.24542 213 ft 11 kts 324°
2026-05-05 14:11 53.43480 -6.24550 218 ft 17 kts 359°
2026-05-05 14:11 53.43526 -6.24631 217 ft 8 kts 278°
2026-05-05 14:11 53.43528 -6.24651 215 ft 0 kts 276°
2026-05-05 14:12 53.43528 -6.24658 219 ft 6 kts 276°
2026-05-05 14:12 53.43555 -6.25131 210 ft 84 kts 276°
2026-05-05 14:12 53.43635 -6.26588 219 ft 163 kts 278°
2026-05-05 14:13 53.43753 -6.28719 564 ft 208 kts 278°
2026-05-05 14:13 53.43920 -6.31245 1336 ft 218 kts 282°
2026-05-05 14:13 53.44460 -6.33535 2427 ft 211 kts 307°
2026-05-05 14:13 53.45436 -6.35461 3029 ft 222 kts 315°
2026-05-05 14:14 53.46517 -6.37358 3662 ft 228 kts 315°
2026-05-05 14:14 53.47621 -6.39303 4319 ft 232 kts 314°
2026-05-05 14:14 53.48733 -6.41287 5047 ft 234 kts 314°
2026-05-05 14:14 53.49869 -6.43329 5596 ft 248 kts 313°
2026-05-05 14:15 53.50977 -6.45634 6175 ft 261 kts 297°
2026-05-05 14:15 53.51351 -6.48608 7113 ft 265 kts 268°
2026-05-05 14:15 53.50869 -6.51586 7955 ft 274 kts 244°
2026-05-05 14:15 53.49894 -6.54376 8681 ft 280 kts 240°
2026-05-05 14:16 53.48865 -6.57154 9333 ft 281 kts 240°
2026-05-05 14:16 53.47826 -6.59992 10133 ft 288 kts 240°
2026-05-05 14:16 53.46765 -6.62920 10631 ft 305 kts 240°
2026-05-05 14:16 53.45509 -6.65974 10895 ft 330 kts 227°
2026-05-05 14:17 53.43600 -6.68213 11570 ft 341 kts 205°
2026-05-05 14:17 53.41396 -6.69739 12458 ft 344 kts 203°
2026-05-05 14:17 53.39156 -6.71207 13319 ft 348 kts 202°
2026-05-05 14:17 53.36888 -6.72684 14087 ft 352 kts 202°
2026-05-05 14:18 53.34632 -6.74163 14819 ft 355 kts 203°
2026-05-05 14:18 53.32326 -6.75690 15573 ft 357 kts 203°
2026-05-05 14:18 53.30010 -6.77237 16315 ft 361 kts 203°
2026-05-05 14:18 53.27670 -6.78809 17047 ft 364 kts 204°
2026-05-05 14:19 53.25310 -6.80400 17771 ft 368 kts 204°
2026-05-05 14:19 53.22927 -6.82009 18467 ft 371 kts 204°
2026-05-05 14:19 53.20524 -6.83632 19087 ft 374 kts 204°
2026-05-05 14:19 53.18098 -6.85270 19733 ft 377 kts 204°
2026-05-05 14:20 53.15693 -6.86893 20370 ft 380 kts 204°
2026-05-05 14:20 53.13234 -6.88551 20992 ft 383 kts 204°
2026-05-05 14:20 53.10757 -6.90218 21595 ft 386 kts 204°
2026-05-05 14:20 53.08259 -6.91899 22198 ft 389 kts 204°
2026-05-05 14:21 53.05741 -6.93590 22767 ft 392 kts 204°
2026-05-05 14:21 53.03200 -6.95295 23340 ft 395 kts 204°
2026-05-05 14:21 53.00643 -6.97008 23861 ft 398 kts 204°
2026-05-05 14:21 52.98061 -6.98735 24325 ft 402 kts 204°
2026-05-05 14:22 52.95494 -7.00451 24770 ft 404 kts 204°
2026-05-05 14:22 52.92883 -7.02193 25234 ft 407 kts 204°
2026-05-05 14:22 52.90246 -7.03951 25690 ft 409 kts 204°
2026-05-05 14:22 52.87593 -7.05716 26123 ft 412 kts 204°
2026-05-05 14:23 52.84924 -7.07490 26553 ft 415 kts 204°
2026-05-05 14:23 52.82235 -7.09275 26980 ft 417 kts 204°
2026-05-05 14:23 52.79535 -7.11065 27405 ft 420 kts 204°
2026-05-05 14:23 52.76812 -7.12867 27815 ft 423 kts 204°
2026-05-05 14:24 52.74075 -7.14676 28224 ft 425 kts 203°
2026-05-05 14:24 52.71322 -7.16494 28615 ft 428 kts 203°
2026-05-05 14:24 52.68582 -7.18300 28993 ft 431 kts 203°
2026-05-05 14:24 52.65795 -7.20135 29358 ft 433 kts 203°
2026-05-05 14:25 52.62991 -7.21979 29732 ft 435 kts 203°
2026-05-05 14:25 52.60172 -7.23830 30088 ft 437 kts 203°
2026-05-05 14:25 52.57338 -7.25689 30384 ft 439 kts 203°
2026-05-05 14:25 52.54489 -7.27554 30686 ft 441 kts 203°
2026-05-05 14:26 52.51629 -7.29424 30972 ft 443 kts 203°
2026-05-05 14:26 52.48761 -7.31296 31292 ft 444 kts 203°
2026-05-05 14:26 52.45896 -7.33164 31696 ft 442 kts 203°
2026-05-05 14:26 52.43079 -7.34998 32103 ft 441 kts 203°
2026-05-05 14:27 52.40225 -7.36853 32466 ft 441 kts 203°
2026-05-05 14:27 52.37377 -7.38703 32802 ft 441 kts 203°
2026-05-05 14:27 52.34520 -7.40555 33172 ft 440 kts 203°
2026-05-05 14:27 52.31679 -7.42395 33543 ft 440 kts 203°
2026-05-05 14:28 52.28838 -7.44233 33902 ft 439 kts 203°
2026-05-05 14:28 52.25997 -7.46067 34206 ft 439 kts 203°
2026-05-05 14:28 52.23154 -7.47901 34459 ft 439 kts 203°
2026-05-05 14:28 52.20311 -7.49733 34711 ft 440 kts 203°
2026-05-05 14:29 52.17502 -7.51539 34969 ft 440 kts 203°
2026-05-05 14:29 52.14657 -7.53367 35225 ft 440 kts 203°
2026-05-05 14:29 52.11807 -7.55194 35467 ft 440 kts 202°
2026-05-05 14:29 52.08957 -7.57020 35719 ft 440 kts 202°
2026-05-05 14:30 52.06107 -7.58843 35962 ft 440 kts 202°
2026-05-05 14:30 52.03250 -7.60667 36199 ft 441 kts 202°
2026-05-05 14:30 52.00398 -7.62487 36426 ft 441 kts 202°
2026-05-05 14:30 51.97537 -7.64309 36662 ft 441 kts 202°
2026-05-05 14:31 51.94679 -7.66127 36895 ft 441 kts 202°
2026-05-05 14:31 51.91859 -7.67918 37111 ft 442 kts 202°
2026-05-05 14:31 51.88996 -7.69735 37325 ft 442 kts 202°
2026-05-05 14:31 51.86133 -7.71548 37536 ft 442 kts 202°
2026-05-05 14:32 51.83274 -7.73357 37749 ft 442 kts 202°
2026-05-05 14:32 51.80402 -7.75172 37960 ft 442 kts 202°
2026-05-05 14:32 51.77532 -7.76982 38081 ft 444 kts 202°
2026-05-05 14:32 51.74642 -7.78803 38073 ft 446 kts 202°
2026-05-05 14:33 51.68869 -7.82432 38070 ft 444 kts 202°
2026-05-05 14:33 51.63179 -7.85999 38076 ft 440 kts 202°
2026-05-05 14:34 51.57460 -7.89571 38098 ft 443 kts 202°
2026-05-05 14:34 51.51664 -7.93184 38096 ft 449 kts 202°
2026-05-05 14:35 51.45825 -7.96815 38090 ft 452 kts 202°
2026-05-05 14:35 51.39988 -8.00436 38086 ft 453 kts 202°
2026-05-05 14:36 51.34102 -8.04077 38084 ft 454 kts 202°
2026-05-05 14:36 51.28221 -8.07706 38082 ft 453 kts 202°
2026-05-05 14:37 51.22354 -8.11317 38082 ft 451 kts 202°
2026-05-05 14:37 51.16551 -8.14880 38087 ft 449 kts 202°
2026-05-05 14:38 51.10734 -8.18443 38089 ft 447 kts 202°
2026-05-05 14:38 51.04935 -8.21987 38091 ft 446 kts 202°
2026-05-05 14:39 50.99120 -8.25369 38085 ft 445 kts 195°
2026-05-05 14:39 50.93060 -8.27433 38087 ft 446 kts 192°
2026-05-05 14:40 50.87012 -8.29305 38097 ft 446 kts 192°
2026-05-05 14:40 50.80919 -8.31230 38091 ft 447 kts 192°
2026-05-05 14:41 50.74816 -8.33198 38092 ft 449 kts 192°
2026-05-05 14:41 50.68684 -8.35188 38094 ft 451 kts 192°
2026-05-05 14:42 50.62577 -8.37167 38094 ft 452 kts 192°
2026-05-05 14:42 50.56396 -8.39164 38094 ft 454 kts 192°
2026-05-05 14:43 50.50202 -8.41158 38097 ft 455 kts 192°
2026-05-05 14:43 50.43996 -8.43151 38093 ft 456 kts 192°
2026-05-05 14:44 50.37816 -8.45130 38092 ft 456 kts 192°
2026-05-05 14:44 50.31595 -8.47117 38095 ft 456 kts 192°
2026-05-05 14:45 50.25380 -8.49096 38091 ft 456 kts 192°
2026-05-05 14:45 50.19162 -8.51071 38093 ft 455 kts 192°
2026-05-05 14:46 50.12959 -8.53037 38090 ft 455 kts 192°
2026-05-05 14:46 50.06808 -8.54980 38091 ft 454 kts 192°
2026-05-05 14:47 50.00618 -8.56932 38097 ft 453 kts 192°
2026-05-05 14:47 49.94438 -8.58874 38093 ft 453 kts 192°
2026-05-05 14:48 49.88256 -8.60813 38089 ft 453 kts 192°
2026-05-05 14:48 49.82120 -8.62732 38091 ft 453 kts 192°
2026-05-05 14:49 49.75938 -8.64660 38092 ft 453 kts 192°
2026-05-05 14:49 49.69752 -8.66584 38092 ft 454 kts 192°
2026-05-05 14:50 49.63551 -8.68509 38089 ft 455 kts 192°
2026-05-05 14:50 49.57344 -8.70429 38093 ft 455 kts 192°
2026-05-05 14:51 49.51167 -8.72336 38092 ft 456 kts 192°
2026-05-05 14:51 49.44937 -8.74254 38094 ft 457 kts 192°
2026-05-05 14:52 49.38698 -8.76170 38089 ft 458 kts 192°
2026-05-05 14:52 49.32452 -8.78083 38089 ft 458 kts 192°
2026-05-05 14:53 49.26235 -8.79983 38089 ft 459 kts 192°
2026-05-05 14:53 49.19971 -8.81892 38086 ft 459 kts 192°
2026-05-05 14:54 49.13699 -8.83799 38085 ft 460 kts 191°
2026-05-05 14:54 49.07424 -8.85701 38088 ft 460 kts 191°
2026-05-05 14:55 49.01143 -8.87601 38085 ft 460 kts 191°
2026-05-05 14:55 48.94901 -8.89484 38087 ft 460 kts 191°
2026-05-05 14:56 48.88613 -8.91377 38094 ft 460 kts 191°
2026-05-05 14:56 48.82327 -8.93264 38090 ft 461 kts 191°
2026-05-05 14:57 48.76039 -8.95148 38084 ft 461 kts 191°
2026-05-05 14:57 48.69792 -8.97017 38091 ft 461 kts 191°
2026-05-05 14:58 48.63498 -8.98894 38091 ft 461 kts 191°
2026-05-05 14:58 48.57147 -9.00176 38088 ft 461 kts 180°
2026-05-05 14:59 48.50726 -9.00144 38084 ft 462 kts 179°
2026-05-05 14:59 48.44345 -9.00035 38089 ft 462 kts 179°
2026-05-05 15:00 48.38955 -8.99987 38084 ft 463 kts 180°
2026-05-05 15:00 48.31468 -8.99972 38092 ft 463 kts 180°
2026-05-05 15:01 48.25018 -8.99975 38083 ft 464 kts 180°
2026-05-05 15:01 48.18556 -8.99978 38086 ft 464 kts 180°
2026-05-05 15:02 48.12131 -8.99979 38084 ft 465 kts 180°
2026-05-05 15:02 48.05658 -8.99979 38088 ft 466 kts 180°
2026-05-05 15:03 47.99167 -8.99979 38088 ft 467 kts 180°
2026-05-05 15:03 47.92671 -8.99979 38092 ft 467 kts 180°
2026-05-05 15:04 47.86208 -8.99979 38082 ft 468 kts 180°
2026-05-05 15:04 47.79694 -8.99979 38082 ft 468 kts 180°
2026-05-05 15:05 47.69919 -8.99979 38086 ft 468 kts 180°
2026-05-05 15:06 47.63408 -8.99979 38080 ft 468 kts 180°
2026-05-05 15:06 47.56932 -8.99979 38086 ft 468 kts 180°
2026-05-05 15:07 47.50415 -8.99979 38076 ft 468 kts 180°
2026-05-05 15:07 47.43895 -8.99979 38078 ft 468 kts 180°
2026-05-05 15:08 47.37384 -8.99980 38080 ft 468 kts 180°
2026-05-05 15:08 47.30917 -8.99980 38078 ft 468 kts 180°
2026-05-05 15:09 47.24403 -8.99980 38077 ft 468 kts 180°
2026-05-05 15:09 47.17892 -8.99980 38080 ft 468 kts 180°
2026-05-05 15:10 47.11385 -8.99980 38080 ft 468 kts 180°
2026-05-05 15:10 47.04873 -8.99980 38073 ft 468 kts 180°
2026-05-05 15:11 46.98410 -8.99980 38084 ft 468 kts 180°
2026-05-05 15:11 46.91900 -8.99980 38077 ft 468 kts 180°
2026-05-05 15:12 46.85386 -8.99980 38081 ft 468 kts 180°
2026-05-05 15:12 46.78864 -8.99980 38081 ft 469 kts 180°
2026-05-05 15:13 46.72390 -8.99980 38069 ft 469 kts 180°
2026-05-05 15:13 46.65860 -8.99980 38073 ft 469 kts 180°
2026-05-05 15:14 46.59323 -8.99980 38072 ft 470 kts 180°
2026-05-05 15:14 46.52790 -8.99980 38073 ft 470 kts 180°
2026-05-05 15:15 46.46248 -8.99981 38075 ft 470 kts 180°
2026-05-05 15:15 46.39746 -8.99981 38074 ft 470 kts 180°
2026-05-05 15:16 46.33203 -8.99981 38074 ft 470 kts 180°
2026-05-05 15:16 46.26655 -8.99981 38072 ft 470 kts 180°
2026-05-05 15:17 46.20106 -8.99981 38074 ft 470 kts 180°
2026-05-05 15:17 46.13606 -8.99981 38072 ft 470 kts 180°
2026-05-05 15:18 46.07060 -8.99981 38072 ft 470 kts 180°
2026-05-05 15:18 46.00520 -8.99981 38068 ft 470 kts 180°
2026-05-05 15:19 45.93983 -8.99982 38071 ft 470 kts 180°
2026-05-05 15:19 45.87486 -8.99982 38072 ft 470 kts 180°
2026-05-05 15:20 45.80955 -8.99982 38073 ft 469 kts 180°
2026-05-05 15:20 45.74423 -8.99982 38070 ft 469 kts 180°
2026-05-05 15:21 45.67890 -8.99983 38066 ft 469 kts 180°
2026-05-05 15:21 45.61406 -8.99983 38068 ft 469 kts 180°
2026-05-05 15:22 45.54877 -8.99983 38069 ft 469 kts 180°
2026-05-05 15:22 45.48347 -8.99984 38064 ft 469 kts 181°
2026-05-05 15:23 45.41812 -8.99984 38067 ft 469 kts 181°
2026-05-05 15:23 45.35279 -8.99985 38066 ft 470 kts 181°
2026-05-05 15:24 45.28788 -8.99986 38068 ft 470 kts 181°
2026-05-05 15:24 45.22253 -8.99987 38068 ft 470 kts 181°
2026-05-05 15:25 45.15710 -8.99990 38066 ft 470 kts 181°
2026-05-05 15:25 45.09167 -8.99993 38068 ft 470 kts 181°
2026-05-05 15:26 45.02667 -8.99965 38066 ft 471 kts 177°
2026-05-05 15:26 44.96251 -8.98216 38055 ft 472 kts 160°
2026-05-05 15:27 44.90122 -8.94905 38054 ft 472 kts 159°
2026-05-05 15:27 44.84005 -8.91546 38071 ft 472 kts 159°
2026-05-05 15:28 44.78905 -8.88802 38057 ft 472 kts 159°
2026-05-05 15:28 44.71791 -8.85036 38060 ft 472 kts 160°
2026-05-05 15:29 44.65605 -8.81785 38069 ft 472 kts 160°
2026-05-05 15:29 44.60487 -8.79100 38057 ft 472 kts 160°
2026-05-05 15:30 44.53287 -8.75328 38056 ft 472 kts 160°
2026-05-05 15:30 44.47173 -8.72132 38061 ft 472 kts 160°
2026-05-05 15:31 44.41014 -8.68920 38053 ft 472 kts 160°
2026-05-05 15:31 44.35898 -8.66257 38060 ft 472 kts 160°
2026-05-05 15:32 44.29744 -8.63061 38063 ft 472 kts 160°
2026-05-05 15:32 44.23590 -8.59871 38059 ft 472 kts 160°
2026-05-05 15:33 44.17437 -8.56690 38059 ft 472 kts 160°
2026-05-05 15:33 44.11327 -8.53538 38057 ft 471 kts 160°
2026-05-05 15:34 44.05181 -8.50374 38064 ft 471 kts 160°
2026-05-05 15:34 43.99017 -8.47208 38050 ft 471 kts 160°
2026-05-05 15:35 43.92865 -8.44054 38057 ft 472 kts 161°
2026-05-05 15:35 43.85713 -8.40397 38062 ft 472 kts 161°
2026-05-05 15:36 43.80591 -8.37784 38065 ft 472 kts 161°
2026-05-05 15:36 43.74428 -8.34646 38058 ft 472 kts 161°
2026-05-05 15:37 43.68264 -8.31515 38064 ft 472 kts 161°
2026-05-05 15:37 43.62092 -8.28386 38060 ft 472 kts 161°
2026-05-05 15:38 43.55966 -8.25288 38070 ft 472 kts 161°
2026-05-05 15:38 43.49792 -8.22172 38070 ft 473 kts 161°
2026-05-05 15:39 43.43611 -8.19060 38072 ft 473 kts 161°
2026-05-05 15:39 43.37430 -8.15954 38070 ft 473 kts 161°
2026-05-05 15:40 43.31247 -8.12853 38071 ft 473 kts 161°
2026-05-05 15:40 43.25100 -8.09778 38070 ft 474 kts 161°
2026-05-05 15:41 43.18904 -8.06685 38066 ft 474 kts 162°
2026-05-05 15:41 43.15790 -8.05133 37706 ft 478 kts 162°
2026-05-05 15:41 43.12694 -8.03591 37369 ft 472 kts 162°
2026-05-05 15:41 43.09614 -8.02058 36931 ft 468 kts 162°
2026-05-05 15:42 43.06569 -8.00544 36537 ft 463 kts 162°
2026-05-05 15:42 43.03554 -7.99047 36147 ft 460 kts 162°
2026-05-05 15:42 43.00594 -7.97580 35755 ft 457 kts 162°
2026-05-05 15:42 42.97615 -7.96105 35339 ft 455 kts 163°
2026-05-05 15:43 42.94648 -7.94638 34930 ft 453 kts 163°
2026-05-05 15:43 42.91700 -7.93181 34513 ft 452 kts 163°
2026-05-05 15:43 42.88734 -7.91718 34097 ft 451 kts 163°
2026-05-05 15:43 42.85791 -7.90267 33621 ft 449 kts 163°
2026-05-05 15:44 42.82870 -7.88828 33196 ft 447 kts 163°
2026-05-05 15:44 42.79944 -7.87388 32786 ft 445 kts 163°
2026-05-05 15:44 42.77037 -7.85959 32373 ft 443 kts 163°
2026-05-05 15:44 42.74145 -7.84540 31975 ft 441 kts 163°
2026-05-05 15:45 42.71268 -7.83129 31580 ft 439 kts 164°
2026-05-05 15:45 42.68437 -7.81741 31193 ft 437 kts 164°
2026-05-05 15:45 42.65576 -7.80349 30814 ft 434 kts 166°
2026-05-05 15:45 42.62665 -7.79479 30421 ft 424 kts 180°
2026-05-05 15:46 42.59738 -7.79378 29755 ft 420 kts 191°
2026-05-05 15:46 42.56887 -7.80031 29216 ft 409 kts 202°
2026-05-05 15:46 42.54154 -7.81055 28744 ft 406 kts 203°
2026-05-05 15:46 42.51429 -7.82107 28074 ft 410 kts 203°
2026-05-05 15:47 42.48717 -7.83153 27698 ft 401 kts 203°
2026-05-05 15:47 42.46060 -7.84166 27427 ft 394 kts 203°
2026-05-05 15:47 42.43436 -7.85159 27148 ft 389 kts 203°
2026-05-05 15:47 42.40843 -7.86135 26892 ft 387 kts 203°
2026-05-05 15:48 42.38274 -7.87101 26616 ft 387 kts 203°
2026-05-05 15:48 42.35695 -7.88065 26291 ft 384 kts 203°
2026-05-05 15:48 42.33127 -7.89022 25911 ft 381 kts 203°
2026-05-05 15:48 42.30577 -7.89971 25543 ft 379 kts 203°
2026-05-05 15:49 42.28040 -7.90915 25184 ft 377 kts 203°
2026-05-05 15:49 42.25513 -7.91854 24810 ft 376 kts 203°
2026-05-05 15:49 42.22991 -7.92791 24442 ft 375 kts 203°
2026-05-05 15:49 42.20480 -7.93723 24078 ft 374 kts 203°
2026-05-05 15:50 42.17971 -7.94653 23691 ft 373 kts 203°
2026-05-05 15:50 42.15471 -7.95580 23285 ft 372 kts 203°
2026-05-05 15:50 42.13016 -7.96487 22894 ft 370 kts 203°
2026-05-05 15:50 42.10543 -7.97401 22493 ft 368 kts 202°
2026-05-05 15:51 42.08083 -7.98309 22128 ft 364 kts 202°
2026-05-05 15:51 42.05648 -7.99207 21771 ft 362 kts 202°
2026-05-05 15:51 42.03228 -8.00100 21413 ft 359 kts 202°
2026-05-05 15:51 42.00824 -8.00987 21045 ft 357 kts 202°
2026-05-05 15:52 41.98437 -8.01866 20693 ft 354 kts 202°
2026-05-05 15:52 41.96070 -8.02738 20354 ft 352 kts 201°
2026-05-05 15:52 41.93713 -8.03607 20009 ft 350 kts 201°
2026-05-05 15:52 41.91397 -8.04460 19660 ft 349 kts 200°
2026-05-05 15:53 41.89030 -8.05332 19322 ft 348 kts 200°
2026-05-05 15:53 41.86732 -8.06176 18972 ft 347 kts 200°
2026-05-05 15:53 41.84409 -8.07026 18632 ft 346 kts 200°
2026-05-05 15:53 41.82090 -8.07877 18280 ft 345 kts 200°
2026-05-05 15:54 41.79911 -8.09101 17842 ft 337 kts 214°
2026-05-05 15:54 41.77901 -8.10678 17510 ft 333 kts 216°
2026-05-05 15:54 41.75908 -8.12252 17151 ft 332 kts 215°
2026-05-05 15:54 41.73913 -8.13787 16782 ft 330 kts 214°
2026-05-05 15:55 41.71915 -8.15295 16469 ft 328 kts 214°
2026-05-05 15:55 41.69908 -8.16748 16115 ft 329 kts 209°
2026-05-05 15:55 41.67770 -8.17875 15772 ft 330 kts 203°
2026-05-05 15:55 41.65618 -8.18821 15440 ft 329 kts 201°
2026-05-05 15:56 41.63441 -8.19745 15093 ft 328 kts 201°
2026-05-05 15:56 41.61270 -8.20680 14773 ft 327 kts 201°
2026-05-05 15:56 41.59120 -8.21627 14432 ft 325 kts 201°
2026-05-05 15:56 41.56974 -8.22588 14102 ft 324 kts 202°
2026-05-05 15:57 41.54840 -8.23554 13749 ft 323 kts 201°
2026-05-05 15:57 41.52713 -8.24521 13378 ft 322 kts 201°
2026-05-05 15:57 41.50595 -8.25488 13015 ft 321 kts 202°
2026-05-05 15:57 41.48517 -8.26437 12676 ft 319 kts 202°
2026-05-05 15:58 41.46428 -8.27389 12343 ft 316 kts 202°
2026-05-05 15:58 41.44355 -8.28332 12001 ft 315 kts 202°
2026-05-05 15:58 41.42284 -8.29273 11680 ft 313 kts 201°
2026-05-05 15:58 41.40224 -8.30208 11349 ft 312 kts 201°
2026-05-05 15:59 41.38174 -8.31136 11028 ft 311 kts 201°
2026-05-05 15:59 41.36133 -8.32060 10691 ft 310 kts 201°
2026-05-05 15:59 41.34095 -8.32983 10369 ft 309 kts 201°
2026-05-05 15:59 41.32079 -8.33895 10190 ft 302 kts 201°
2026-05-05 16:00 41.30111 -8.34785 10016 ft 296 kts 202°
2026-05-05 16:00 41.28161 -8.35668 9689 ft 296 kts 202°
2026-05-05 16:00 41.26213 -8.36550 9387 ft 295 kts 202°
2026-05-05 16:00 41.24267 -8.37430 9025 ft 296 kts 201°
2026-05-05 16:01 41.22329 -8.38307 8753 ft 293 kts 201°
2026-05-05 16:01 41.20428 -8.39166 8439 ft 292 kts 202°
2026-05-05 16:01 41.18515 -8.40029 8146 ft 289 kts 202°
2026-05-05 16:01 41.16616 -8.40886 7849 ft 287 kts 202°
2026-05-05 16:02 41.14722 -8.41744 7493 ft 287 kts 202°
2026-05-05 16:02 41.12846 -8.42589 7343 ft 279 kts 201°
2026-05-05 16:02 41.11063 -8.43389 7264 ft 263 kts 201°
2026-05-05 16:02 41.09366 -8.44155 7127 ft 252 kts 202°
2026-05-05 16:03 41.07748 -8.44884 7036 ft 239 kts 202°
2026-05-05 16:03 41.06215 -8.45573 6948 ft 226 kts 201°
2026-05-05 16:03 41.04765 -8.46222 6826 ft 215 kts 202°
2026-05-05 16:03 41.03373 -8.46845 6636 ft 208 kts 202°
2026-05-05 16:04 41.02034 -8.47445 6527 ft 197 kts 202°
2026-05-05 16:04 41.00826 -8.48185 6285 ft 187 kts 227°
2026-05-05 16:04 41.00169 -8.49563 6002 ft 174 kts 261°
2026-05-05 16:04 40.99930 -8.51108 5654 ft 176 kts 263°
2026-05-05 16:05 40.99676 -8.52756 5259 ft 179 kts 262°
2026-05-05 16:05 40.99434 -8.54324 5139 ft 167 kts 263°
2026-05-05 16:05 40.99212 -8.55778 5118 ft 159 kts 264°
2026-05-05 16:05 40.98992 -8.57247 5103 ft 169 kts 264°
2026-05-05 16:06 40.98760 -8.58796 5070 ft 173 kts 263°
2026-05-05 16:06 40.98847 -8.60313 5004 ft 162 kts 304°
2026-05-05 16:06 40.99731 -8.61138 4942 ft 162 kts 339°
2026-05-05 16:06 41.00825 -8.61662 4702 ft 171 kts 339°
2026-05-05 16:07 41.01947 -8.62176 4468 ft 168 kts 339°
2026-05-05 16:07 41.03044 -8.62635 4255 ft 162 kts 343°
2026-05-05 16:07 41.04107 -8.62947 4038 ft 154 kts 346°
2026-05-05 16:07 41.05180 -8.63220 3860 ft 160 kts 346°
2026-05-05 16:08 41.06275 -8.63495 3660 ft 163 kts 346°
2026-05-05 16:08 41.07381 -8.63767 3452 ft 155 kts 346°
2026-05-05 16:08 41.08420 -8.64026 3210 ft 149 kts 346°
2026-05-05 16:08 41.09420 -8.64276 3012 ft 144 kts 346°
2026-05-05 16:09 41.10391 -8.64519 2826 ft 140 kts 345°
2026-05-05 16:09 41.11335 -8.64753 2644 ft 137 kts 345°
2026-05-05 16:09 41.12264 -8.64984 2470 ft 136 kts 345°
2026-05-05 16:09 41.13209 -8.65220 2300 ft 141 kts 345°
2026-05-05 16:10 41.14156 -8.65450 2111 ft 137 kts 346°
2026-05-05 16:10 41.15073 -8.65666 1977 ft 134 kts 346°
2026-05-05 16:10 41.16031 -8.65854 1914 ft 141 kts 348°
2026-05-05 16:10 41.16990 -8.66043 1756 ft 141 kts 346°
2026-05-05 16:11 41.17962 -8.66337 1594 ft 146 kts 343°
2026-05-05 16:11 41.20820 -8.67085 774 ft 136 kts 344°
2026-05-05 16:12 41.21760 -8.67326 623 ft 138 kts 346°
2026-05-05 16:12 41.23662 -8.67822 257 ft 132 kts 345°
2026-05-05 16:13 41.25185 -8.68147 179 ft 24 kts 16°
2026-05-05 16:13 41.25256 -8.68116 176 ft 12 kts 19°
2026-05-05 16:13 41.25287 -8.68022 175 ft 14 kts 138°
2026-05-05 16:14 41.25097 -8.67973 184 ft 22 kts 168°
2026-05-05 16:14 41.24764 -8.67831 203 ft 24 kts 162°
2026-05-05 16:15 41.24449 -8.67745 218 ft 23 kts 169°
2026-05-05 16:15 41.24183 -8.67571 240 ft 22 kts 164°
2026-05-05 16:16 41.23875 -8.67498 238 ft 26 kts 174°
2026-05-05 16:16 41.23499 -8.67390 236 ft 26 kts 168°
2026-05-05 16:17 41.23419 -8.67308 239 ft 10 kts 63°
2026-05-05 16:17 41.23438 -8.67265 236 ft 3 kts 59°
2026-05-05 16:18 41.23442 -8.67256 239 ft 0 kts 59°